Showing default

LANDSAT 1 (ERTS 1), 6126

Orbit data source: Space-Track

LANDSAT 1 (ERTS 1), 6126 is a payload satellite owned by GSFC (US) in SSO that was launched on Sun, 23 Jul 1972 UTC via a DELTA 0900 launch vehicle from the Air Force Western Test Range (AFWTR). Payload-class satellites include a variety of spacecraft equipped with specific instruments for various scientific and technological missions. These include communications satellites like Starlink; space stations such as the ISS; scientific satellites like the Hubble; Earth observation satellites from companies like Planet Labs, Umbra, and HawkEye 360; GPS; miniature CubeSats for education and research; and military/defense satellites.

Loading next visibility...
Identifier
6126, 1972-058A
Orbit
SSO
Country
Flag of USUS
Related business
Manufacturer
GE/MSVD
Mission
Non-operational spacecraft
Bus & Motor
NIMBUS, Unknown motor
Mass
891 kg wet, 891 kg dry
Launch date (UTC)
1972-07-23 (54 years ago)
Launch vehicle
DELTA 0900
Launch site
Air Force Western Test Range (AFWTR)
Object type
Payload
Rocket body
Debris
Shape & HBR
Unknown
Radar Cross Section
Large (>1 m²)

Expand to show TLE details & history
Last TLE update: 10 hours ago

TLE from 10 hours ago
0 LANDSAT 1 (ERTS 1)
1 06126U 72058A   26121.07735705  .00000309  00000-0  25126-3 0  9994
2 06126  99.3403 150.0217 0008549  30.9925 329.1740 13.97832788741379
Epoch: 2026-05-01T01:51Z
TLE epoch observation values (Epoch: 2026-05-01T01:51:23.649Z)
Latitude
-0.00001°
Longitude
-96.84163°
Altitude
898.829 km
Speed
7.405 km/s
True Right ascension
10h 00m 05s
True Declination
0° 00' 00"
Sunlit
Object was in daylight at epoch
Visualization orbit readout
Latitude
Unknown
Longitude
Unknown
Altitude
Unknown
Speed
Unknown
Apparent Right ascension
Unknown
Apparent Declination
Unknown
Sunlit
N/A
Visualization observer readout
Local Sidereal Time
19:19:54
Azimuth
Unknown
Elevation
Unknown
Doppler factor
Unknown
Orbital elements
Apogee altitude
904.75 km
Perigee altitude
892.308 km
Semi-major axis
7,276.666 km
Eccentricity
0.00085
Inclination
99.3403°
RAAN
150.0217°
Arg. of periapsis
30.9925°
True anomaly
329.12375°
Mean anomaly
329.174°
Eccentric anomaly
329.14888°
Mean motion
3.49659 °/min
Orbital period
102.96 mins
BSTAR
0.00025126
Loading maneuver chart data...
Computing Atmospheric mass density...

Documentation

Showing up to 5 results
|